Regional Weather Roundup
Issued by NWS

Home | Current Version | Previous Version | Text Only | Print | Product List | Glossary On
Versions: 1 2 3 4 5 6 7 8 9 10 11 12 13 14 15 16 17 18 19 20 21 22 23 24 25 26 27 28 29 30 31 32 33 34 35 36 37 38 39 40 41 42 43 44 45 46 47 48 49 50
000
ASUS42 KFFC 230310
RWRGA
WEATHER ROUNDUP FOR GEORGIA
NATIONAL WEATHER SERVICE PEACHTREE CITY GA
1100 PM EDT TUE AUG 22 2017

NOTE: "FAIR" INDICATES FEW OR NO CLOUDS BELOW 12,000 FEET WITH NO
SIGNIFICANT WEATHER AND/OR OBSTRUCTIONS TO VISIBILITY.

* = USE WITH CAUTION. THE STATIONS MARKED WITH AN ASTERISK MAY NOT
REPORT WEATHER SUCH AS PRECIPITATION, FOG, OR THUNDER AND ARE NOT
QUALITY CONTROLLED BY NWS.

THE REMARK "TC" DENOTES TEMPERATURE READING IN DEGREES CELSIUS.

GAZ001>058-230400-
NORTH GEORGIA

CITY           SKY/WX    TMP DP  RH WIND       PRES   REMARKS
ATLANTA        PTCLDY    80  73  79 SW7       30.02S
ATHENS         PTCLDY    78  74  87 CALM      30.00S
CHAMBLEE       PTCLDY    79  71  76 S5        30.02R
PEACHTREE CITY CLEAR     77  73  87 CALM      30.02F
ROME           CLEAR     80  73  79 SW5       30.00R
WEST ATLANTA   CLEAR     81  74  79 SW3       30.01R
GAINESVILLE    CLEAR     79  73  82 SW6       30.04S
CARTERSVILLE   CLEAR     78  73  84 CALM      30.02R


CITY           SKY/WX    TMP DP  RH WIND       PRES   REMARKS
MARIETTA       CLEAR     80  72  75 SW5       30.03R
KENNESAW*      CLEAR     80  72  76 S5        30.03R
CANTON*        CLEAR     81  72  74 W5        30.04R
$$

GAZ059>098-102>109-230400-
CENTRAL GEORGIA

CITY           SKY/WX    TMP DP  RH WIND       PRES   REMARKS
AUGUSTA-BUSH   PTCLDY    77  75  93 CALM      29.98S
AUGUSTA-DANIEL CLEAR     81  72  74 CALM      30.00R
COLUMBUS       CLEAR     84  75  74 CALM      29.99F HX  92
MACON          CLEAR     77  75  93 CALM      30.00S
ROBINS AFB     CLEAR     79  73  83 CALM      30.00R


CITY           SKY/WX    TMP DP  RH WIND       PRES   REMARKS
LAGRANGE*      CLEAR     77  76  98 CALM      30.02R
SYLVANIA*      MOCLDY    79  77  95 CALM      30.01S
MILLEDGEVILLE* CLEAR     77  73  88 CALM      29.99F
$$

GAZ099>101-110>166-230400-
SOUTH GEORGIA

CITY           SKY/WX    TMP DP  RH WIND       PRES   REMARKS
SAVANNAH       PTCLDY    79  76  90 S6        30.00F
VALDOSTA       PTCLDY    75  74  96 CALM      30.01R
ALMA           PTCLDY    77  74  90 CALM      30.00S
ST SIMONS      CLEAR     84  75  74 S6        30.00S HX  92
FT STEWART     PTCLDY    77  74  90 CALM      29.98S
ALBANY         CLOUDY    81  75  82 W5        30.02S
HUNTER AFB     PTCLDY    80  76  87 SW3       29.97F
MOODY AFB      PTCLDY    80  74  82 W5        30.00R
BRUNSWICK      CLEAR     77  73  88 CALM      30.01S


CITY           SKY/WX    TMP DP  RH WIND       PRES   REMARKS
BAINBRIDGE*    PTCLDY    79  79 100 CALM      30.01R
MOULTRIE*      CLOUDY    79  75  89 CALM      30.02S
VIDALIA*       PTCLDY    79  77  94 CALM      30.01S
WAYCROSS*      PTCLDY    78  75  90 CALM      30.00F
DOUGLAS*       CLEAR     77  72  83 CALM      30.02S
$$




USA.gov is the U.S. government's official web portal to all federal, state and local government web resources and services.